Temp
40 40 39 38 38 38 37 36 36 36 36 35 35 35 35 35 36 36 36 35 34 34 34 34 33 34 34 34 35 35 34 35 31 36 40 41 39 40 41 42 42 42 43
39 38 37 37 36 35 35 34 34 34 34 34 34 34 33 34 34 34 33 34 32 32 32 32 32 33 32 32 32 31 32 32 30 27 32 34 34 37 38 38 39 41 41
37 36 35 34 34 33 33 33 33 32 32 32 32 31 31 32 33 34 34 33 33 33 32 31 31 32 31 32 33 32 32 33 32 30 30 35 35 37 36 37 37 37 38
36 34 33 32 32 32 32 31 31 31 31 31 31 31 31 32 34 34 33 32 32 32 32 32 32 32 31 32 32 32 32 31 31 31 31 31 33 35 36 33 33 37 36
34 32 31 31 31 31 30 30 30 30 30 30 30 30 30 32 34 34 33 32 31 31 31 32 32 31 32 33 32 32 32 30 30 29 28 29 30 30 29 32 31 32 34
32 30 30 30 30 29 29 29 29 28 28 29 28 28 28 31 34 34 34 31 30 30 29 30 31 31 31 31 33 34 34 31 28 28 28 27 28 29 30 29 29 27 26
30 30 29 29 28 27 27 27 26 26 27 27 27 27 27 28 33 34 33 31 30 30 29 29 29 30 29 30 32 32 31 32 32 30 27 28 27 30 30 28 29 28 27
29 28 27 27 26 26 25 24 24 25 25 25 26 26 26 27 31 32 32 30 30 30 30 29 28 28 28 30 30 28 28 28 29 30 29 29 31 31 30 31 30 28 28
27 26 25 25 24 23 23 22 23 23 24 24 25 25 24 25 29 31 31 29 28 28 29 29 28 27 29 31 27 25 24 25 29 30 31 31 32 32 32 29 25 24 24
25 24 23 23 22 21 21 21 22 22 23 23 23 23 23 23 26 30 31 28 26 27 27 27 27 27 30 29 25 23 18 21 23 21 21 23 25 26 29 25 23 20 21
22 21 20 20 19 20 19 19 19 19 19 18 19 21 21 22 23 28 30 28 26 25 24 24 25 27 27 26 26 20 21 24 18 16 17 19 21 23 24 23 21 19 18
17 17 16 15 18 19 13 16 16 16 15 15 16 18 20 21 23 26 28 29 29 24 23 23 24 25 24 23 21 23 23 19 16 15 15 16 17 17 18 17 17 17 17
13 10 10 12 16 16 14 15 15 13 13 15 16 16 17 19 20 24 24 27 27 25 23 23 21 21 19 17 18 19 15 14 13 12 12 14 16 17 16 16 17 16 15
8 10 11 11 12 13 16 16 14 12 12 15 15 15 15 16 17 19 23 23 24 23 21 12 16 15 14 14 11 12 13 13 12 11 12 14 16 16 15 15 13 13 11
10 10 11 11 10 12 13 13 14 15 15 13 14 14 13 14 18 25 24 22 22 21 10 8 5 5 5 6 7 8 10 10 9 11 11 11 13 14 13 14 12 11 9
10 10 10 10 9 10 9 9 16 20 21 23 23 21 18 22 23 24 25 24 22 20 4 1 1 2 2 3 3 4 7 7 8 8 9 10 10 10 10 11 11 8 7
9 9 8 8 6 6 6 5 6 10 16 19 19 19 20 20 21 22 22 20 14 9 -2 -4 -2 -1 -0 1 2 2 3 5 6 7 8 8 8 8 8 7 7 7 7
1 4 4 4 4 2 2 3 5 7 7 8 10 13 16 16 19 19 18 7 -1 -2 -5 -5 -4 -3 -1 -1 0 0 2 4 4 5 6 6 6 6 5 5 5 4 5
1 -0 -0 -1 -1 1 3 4 4 4 5 4 3 7 7 11 14 13 10 -4 -8 -7 -6 -5 -4 -4 -3 -1 -1 -0 0 1 2 2 4 4 4 4 3 4 4 4 5
-2 1 0 0 2 3 4 4 4 4 3 2 1 0 -1 1 0 -3 -5 -9 -9 -8 -7 -7 -5 -5 -4 -3 -2 -1 -1 -0 -0 1 2 3 3 3 2 2 3 3 3
0 1 3 3 3 3 4 4 4 2 2 0 -1 -2 11 0 -7 -10 -10 -9 -9 -9 -8 -8 -6 -6 -5 -3 -3 -2 -2 -2 -2 -1 0 1 2 1 2 2 2 2 1
3 4 2 3 4 4 4 4 2 1 -1 -3 -3 -6 6 -8 -11 -12 -11 -10 -7 -9 -8 -9 -8 -7 -5 -5 -4 -3 -3 -4 -3 -2 -1 -1 0 1 1 1 -0 1 1
3 2 2 3 5 4 2 1 -1 -3 -5 -6 -8 -10 -12 -11 -11 -11 -9 -8 -8 -8 -8 -10 -10 -8 -5 -6 -4 -3 -4 -4 -2 -2 -2 -1 -1 -0 0 -1 -1 -1 -0
3 5 5 5 4 2 1 -0 -3 -4 -5 -8 -14 -14 -11 -10 -11 -9 -8 -7 -8 -9 -9 -10 -10 -9 -8 -7 -6 -5 -4 -3 -2 -2 -0 -1 -1 -1 -1 -1 -1 -2 -1
5 5 5 4 2 2 0 -3 -4 -5 -7 -10 -11 -13 -11 -10 -10 -8 -7 -8 -10 -9 -9 -9 -8 -9 -9 -10 -10 -9 -8 -6 -4 -1 1 1 -1 -2 -2 -2 -2 -2 -2
4 3 2 2 1 -1 -3 -4 -6 -7 -10 -11 -11 -11 -10 -9 -8 -8 -8 -9 -10 -10 -10 -8 -7 -10 -10 -8 -8 -7 -4 2 3 5 6 -0 -3 -3 -2 -3 -3 -2 -3
MSLP
1027.77 1028.10 1028.19 1028.66 1029.30 1028.94 1028.93 1029.38 1029.10 1029.09 1029.14 1029.04 1028.92 1028.93 1028.85 1028.75 1028.48 1028.32 1028.18 1028.04 1027.79 1027.58 1027.41 1027.16 1026.94 1026.64 1026.24 1025.96 1025.75 1025.32 1024.66 1023.89 1022.29 1019.38 1019.75 1019.05 1018.52 1017.88 1017.27 1016.68 1015.95 1015.15 1014.20
1028.35 1028.61 1028.81 1029.13 1029.31 1029.68 1029.81 1029.54 1029.54 1029.53 1029.54 1029.49 1029.31 1029.23 1029.15 1029.02 1028.81 1028.60 1028.46 1028.29 1028.08 1027.97 1027.72 1027.45 1027.17 1026.73 1026.44 1026.37 1025.96 1025.65 1024.92 1024.14 1023.34 1021.11 1020.33 1019.39 1019.06 1018.24 1017.34 1016.49 1015.63 1014.92 1014.10
1028.41 1029.02 1029.46 1029.89 1030.15 1029.93 1029.88 1029.90 1030.10 1030.03 1029.95 1029.92 1029.75 1029.63 1029.55 1029.28 1029.04 1028.89 1028.74 1028.48 1028.30 1028.22 1027.93 1027.82 1027.42 1027.01 1026.51 1026.20 1025.88 1025.41 1024.81 1023.93 1023.25 1022.16 1019.87 1019.58 1018.63 1017.88 1016.72 1016.11 1015.29 1014.45 1013.84
1028.83 1029.43 1029.89 1030.17 1030.19 1030.27 1030.52 1030.36 1030.36 1030.29 1030.13 1030.10 1029.99 1030.02 1030.10 1029.65 1029.21 1028.97 1028.77 1028.75 1028.48 1028.28 1027.90 1027.68 1027.35 1027.12 1026.70 1026.06 1025.56 1025.08 1024.61 1023.80 1022.99 1022.02 1020.72 1019.49 1018.70 1017.58 1016.89 1015.75 1014.23 1014.19 1013.23
1029.27 1029.73 1030.14 1030.34 1030.48 1030.61 1030.67 1030.58 1030.54 1030.49 1030.45 1030.34 1030.21 1030.12 1029.93 1029.47 1029.02 1028.74 1028.78 1028.70 1028.69 1028.34 1028.00 1027.55 1027.22 1026.93 1026.41 1026.18 1025.51 1024.74 1024.15 1023.42 1022.65 1021.69 1020.69 1019.37 1018.34 1017.30 1016.74 1015.87 1014.88 1013.77 1012.91
1029.63 1030.03 1030.38 1030.56 1030.71 1030.71 1030.77 1030.83 1030.83 1030.77 1030.71 1030.49 1030.34 1030.30 1029.97 1029.81 1029.33 1028.99 1028.77 1028.78 1028.57 1028.16 1027.77 1027.41 1027.18 1026.70 1026.43 1026.01 1025.22 1024.42 1024.00 1023.16 1022.40 1021.56 1020.44 1019.38 1018.01 1017.47 1016.55 1015.76 1014.80 1013.73 1012.21
1029.92 1030.27 1030.52 1030.73 1030.89 1031.03 1031.10 1031.00 1030.94 1030.90 1030.75 1030.51 1030.46 1030.31 1030.31 1030.28 1029.49 1029.19 1028.88 1028.58 1028.44 1028.14 1027.70 1027.41 1026.99 1026.87 1026.35 1025.58 1024.64 1024.15 1023.93 1023.43 1022.78 1021.74 1020.37 1019.35 1018.03 1016.92 1016.13 1014.93 1014.07 1013.51 1012.42
1030.12 1030.48 1030.83 1030.99 1031.02 1031.19 1031.10 1031.17 1031.05 1031.09 1030.87 1030.73 1030.71 1030.64 1030.56 1030.15 1029.70 1029.10 1028.56 1028.53 1028.31 1028.00 1027.69 1027.35 1027.17 1026.72 1026.16 1025.16 1024.28 1023.79 1023.42 1022.90 1022.23 1021.42 1020.57 1019.13 1017.74 1016.24 1015.54 1014.73 1013.70 1012.64 1011.78
1030.44 1030.77 1030.94 1030.99 1030.99 1031.10 1031.14 1031.16 1031.34 1031.46 1031.06 1031.30 1031.05 1030.86 1030.52 1030.28 1029.58 1028.90 1028.54 1028.51 1028.22 1027.84 1027.46 1027.22 1027.09 1026.52 1025.92 1025.10 1024.53 1023.62 1022.76 1022.30 1021.75 1020.87 1019.83 1018.55 1017.41 1016.28 1015.34 1014.46 1013.21 1012.38 1011.35
1030.40 1030.62 1030.77 1030.91 1031.12 1031.22 1031.26 1031.71 1031.73 1031.45 1031.34 1031.44 1031.23 1030.82 1030.42 1030.29 1029.83 1029.09 1028.52 1028.38 1027.98 1027.43 1027.31 1027.24 1027.02 1026.53 1025.65 1025.36 1024.78 1024.02 1023.01 1021.88 1020.84 1019.87 1019.29 1018.30 1017.36 1016.19 1015.14 1014.74 1013.65 1012.87 1012.24
1030.15 1030.48 1030.74 1031.08 1031.28 1031.37 1031.71 1031.76 1031.71 1031.57 1031.39 1031.30 1031.11 1030.68 1030.50 1030.41 1030.13 1029.20 1028.53 1028.09 1027.78 1027.67 1027.52 1027.17 1026.87 1026.29 1025.99 1025.50 1024.98 1024.58 1023.45 1021.97 1021.45 1020.64 1019.30 1018.10 1016.91 1015.84 1015.08 1014.61 1014.23 1013.81 1013.12
1030.21 1030.64 1031.15 1031.25 1031.53 1031.55 1031.66 1031.74 1031.72 1031.63 1031.46 1031.22 1030.99 1030.76 1030.62 1030.45 1029.91 1029.26 1028.67 1028.24 1027.99 1027.81 1027.44 1027.14 1026.74 1026.50 1026.08 1025.62 1025.18 1024.32 1023.29 1022.85 1021.92 1020.80 1019.65 1018.32 1017.20 1016.32 1015.71 1015.27 1014.83 1014.39 1013.94
1030.54 1030.86 1031.09 1031.46 1031.53 1031.50 1031.65 1031.51 1031.47 1031.64 1031.56 1031.37 1031.10 1030.68 1030.28 1030.06 1029.90 1029.31 1028.91 1028.24 1027.99 1027.40 1027.37 1027.13 1027.16 1026.63 1026.35 1026.05 1025.44 1024.50 1023.88 1022.97 1022.02 1020.86 1019.80 1018.79 1017.88 1016.97 1016.20 1015.49 1014.96 1014.61 1014.09
1030.62 1030.91 1031.24 1031.46 1031.48 1031.43 1031.28 1031.36 1031.58 1031.70 1031.44 1031.07 1030.66 1030.37 1030.13 1029.88 1029.52 1029.08 1028.50 1028.15 1027.68 1027.36 1027.44 1028.21 1027.59 1027.49 1027.07 1026.36 1025.76 1024.99 1024.13 1023.19 1022.24 1021.03 1020.12 1019.13 1018.07 1017.09 1016.38 1015.89 1015.27 1014.75 1014.24
1030.57 1030.80 1031.06 1031.19 1031.28 1031.38 1031.50 1031.48 1031.24 1031.09 1030.84 1030.38 1030.24 1030.22 1030.06 1029.69 1029.32 1028.74 1028.35 1027.90 1027.67 1027.80 1028.58 1028.73 1028.47 1028.11 1027.42 1026.59 1025.90 1025.14 1024.12 1023.10 1022.10 1021.29 1020.37 1019.29 1018.36 1017.49 1016.67 1016.15 1015.70 1015.23 1014.85
1030.26 1030.56 1030.78 1031.04 1031.32 1031.53 1031.68 1031.54 1031.06 1030.39 1030.13 1029.88 1029.73 1029.71 1029.86 1029.48 1029.16 1028.78 1028.33 1028.19 1028.35 1028.37 1029.46 1029.61 1029.22 1028.63 1027.80 1026.88 1025.96 1024.81 1023.84 1023.06 1022.40 1021.65 1020.74 1019.89 1018.98 1018.04 1017.20 1016.53 1016.10 1015.61 1015.04
1029.80 1030.15 1030.62 1030.84 1031.18 1031.48 1031.67 1031.60 1031.36 1030.92 1030.55 1030.28 1030.16 1029.99 1029.65 1029.61 1029.28 1028.73 1028.49 1028.56 1029.12 1029.07 1029.86 1029.76 1029.48 1028.82 1027.97 1027.16 1026.22 1025.22 1024.07 1023.36 1022.82 1022.07 1021.19 1020.32 1019.45 1018.52 1017.77 1016.98 1016.30 1015.74 1015.13
1029.70 1029.91 1030.31 1030.65 1030.96 1031.40 1031.60 1031.54 1031.51 1031.32 1031.08 1030.93 1030.80 1030.43 1030.05 1029.88 1029.28 1028.97 1029.09 1029.79 1030.00 1029.94 1030.29 1029.91 1029.41 1028.78 1027.97 1027.08 1026.16 1025.35 1024.48 1023.63 1022.97 1022.30 1021.39 1020.62 1019.81 1018.98 1018.10 1017.29 1016.60 1016.06 1015.47
1029.48 1029.90 1030.14 1030.46 1030.79 1031.09 1031.37 1031.40 1031.26 1031.06 1030.94 1030.92 1031.09 1030.67 1030.74 1030.14 1029.56 1029.64 1029.75 1030.46 1030.68 1030.43 1030.10 1029.66 1029.10 1028.50 1027.86 1027.08 1026.21 1025.49 1024.75 1023.94 1023.29 1022.50 1021.60 1020.78 1020.01 1019.27 1018.35 1017.61 1016.90 1016.32 1015.76
1028.89 1029.13 1029.58 1030.04 1030.42 1030.59 1030.66 1030.71 1030.80 1030.89 1031.03 1031.15 1031.06 1030.98 1030.90 1030.80 1030.34 1030.27 1030.36 1030.65 1030.51 1030.20 1029.88 1029.47 1028.77 1028.24 1027.62 1026.92 1026.15 1025.38 1024.63 1023.91 1023.28 1022.57 1021.68 1020.88 1020.13 1019.48 1018.59 1017.80 1017.15 1016.55 1015.99
1028.24 1028.78 1029.05 1029.48 1029.66 1029.86 1029.99 1030.17 1030.49 1030.88 1031.05 1031.12 1031.16 1031.19 1030.75 1030.76 1030.91 1030.92 1030.84 1030.42 1030.22 1029.99 1029.61 1029.13 1028.47 1027.80 1027.16 1026.58 1025.95 1025.27 1024.61 1023.85 1023.27 1022.59 1021.72 1020.92 1020.18 1019.42 1018.72 1018.03 1017.39 1016.80 1016.38
1027.37 1027.86 1028.40 1028.63 1028.90 1029.19 1029.54 1029.94 1030.34 1030.62 1030.90 1031.01 1031.01 1031.02 1030.72 1030.90 1030.89 1030.61 1030.16 1029.81 1029.66 1029.51 1029.08 1028.65 1027.94 1027.01 1026.47 1026.07 1025.56 1025.00 1024.35 1023.67 1022.97 1022.32 1021.58 1020.91 1020.16 1019.44 1018.76 1018.11 1017.56 1017.06 1016.64
1026.82 1027.37 1027.75 1028.01 1028.36 1028.73 1029.15 1029.55 1030.04 1030.44 1030.69 1030.98 1031.15 1031.20 1030.99 1030.70 1030.34 1029.92 1029.55 1029.18 1028.96 1028.56 1028.11 1027.81 1027.24 1026.29 1025.63 1025.35 1024.92 1024.46 1023.89 1023.25 1022.63 1022.08 1021.36 1020.60 1019.96 1019.30 1018.72 1018.15 1017.72 1017.29 1016.93
1026.31 1026.69 1027.02 1027.34 1027.84 1028.31 1028.80 1029.32 1029.82 1030.15 1030.48 1030.90 1031.13 1030.90 1030.51 1030.16 1029.90 1029.35 1028.81 1028.42 1028.17 1027.71 1027.19 1026.80 1026.29 1025.54 1024.95 1024.63 1024.27 1023.76 1023.18 1022.60 1022.02 1021.45 1020.83 1020.24 1019.66 1019.11 1018.61 1018.15 1017.84 1017.53 1017.21
1025.76 1026.09 1026.48 1026.97 1027.59 1028.09 1028.64 1029.13 1029.54 1029.95 1030.38 1030.69 1030.54 1030.40 1030.03 1029.70 1029.24 1028.70 1028.21 1027.85 1027.60 1027.07 1026.27 1025.75 1025.20 1024.63 1024.18 1023.84 1023.53 1022.98 1022.30 1021.74 1021.17 1020.47 1019.93 1019.43 1019.26 1018.95 1018.57 1018.20 1017.94 1017.69 1017.50
1025.43 1025.97 1026.52 1027.09 1027.59 1027.99 1028.38 1028.80 1029.41 1029.85 1030.07 1030.04 1029.98 1029.82 1029.55 1029.22 1028.77 1028.20 1027.63 1027.13 1026.82 1026.12 1025.45 1024.82 1024.16 1023.76 1023.28 1022.83 1022.33 1021.76 1021.12 1020.48 1019.77 1019.08 1018.50 1018.72 1018.85 1018.72 1018.45 1018.19 1017.98 1017.81 1017.70
Wind_Speed
7 7 8 8 7 7 8 7 7 8 8 9 8 8 9 8 8 8 8 9 10 10 10 10 10 10 8 7 7 6 7 7 13 13 12 14 17 16 14 13 12 13 11
6 7 8 7 7 7 7 7 7 7 7 8 7 7 7 8 8 10 10 10 11 11 11 11 11 9 11 10 8 10 8 9 10 21 15 14 17 17 16 16 12 10 12
7 8 7 6 5 6 7 7 7 7 7 7 7 8 8 7 8 8 8 9 9 9 9 10 10 9 9 8 10 9 9 9 10 12 16 13 13 12 14 14 13 13 9
7 6 6 5 6 6 6 7 6 6 6 7 7 7 7 6 7 7 8 9 9 9 9 8 10 11 11 12 11 11 10 10 10 11 13 14 13 13 12 14 14 10 12
6 6 5 5 5 5 6 6 6 6 6 6 6 6 6 5 7 8 7 8 8 8 9 10 10 12 16 16 9 11 12 10 11 11 12 13 13 12 13 13 14 14 12
5 6 4 5 5 5 5 5 5 5 5 5 7 6 7 5 12 12 9 6 7 8 9 10 10 10 14 18 19 23 20 14 16 13 14 15 19 15 12 13 14 11 13
5 5 4 4 4 4 3 4 5 5 4 5 6 6 6 5 11 12 12 6 7 8 9 9 10 9 12 13 18 21 19 23 22 18 18 17 20 18 15 16 15 13 13
5 4 3 3 3 3 3 4 4 3 4 4 5 5 5 4 11 13 14 8 7 8 8 10 11 13 14 17 18 17 16 15 15 13 16 18 19 17 14 16 20 18 13
4 4 3 2 3 2 3 3 3 3 3 4 4 5 5 6 12 14 11 7 8 9 9 10 11 13 20 28 19 19 19 16 16 26 29 32 32 33 29 17 14 9 11
5 4 3 3 2 2 2 2 1 2 3 3 3 3 5 7 11 12 12 6 8 8 9 10 14 17 25 29 18 16 17 18 19 20 16 17 18 18 24 14 9 9 9
4 4 3 2 2 2 1 0 1 1 2 3 3 4 3 5 7 12 15 8 8 8 8 7 8 23 28 27 26 12 16 21 19 13 13 12 12 12 11 9 7 7 7
4 4 3 2 1 2 2 1 1 2 2 3 4 3 2 3 9 11 16 16 17 9 8 8 10 28 27 26 19 25 26 19 10 10 11 11 11 11 11 9 8 6 5
5 4 3 2 2 2 2 1 1 1 1 2 3 3 4 4 5 12 13 18 17 10 8 15 23 25 23 16 22 24 18 9 10 10 10 10 10 10 10 9 7 6 6
5 5 4 4 3 1 1 1 1 2 2 2 2 3 4 5 6 6 6 7 11 9 12 8 16 18 17 17 11 12 9 9 10 10 10 11 9 9 8 7 7 7 6
5 4 4 3 2 1 2 3 3 4 5 3 2 1 2 5 6 14 14 9 9 12 7 6 7 8 9 9 9 9 8 9 10 10 10 11 10 9 8 8 6 7 5
5 4 4 3 3 3 2 2 5 4 4 4 4 4 2 8 14 16 18 18 19 19 4 6 7 7 8 9 10 10 8 11 10 11 10 10 10 9 9 8 7 7 7
6 5 4 4 4 3 3 2 1 3 4 2 6 7 8 11 14 15 16 16 14 10 2 4 7 7 8 8 8 9 10 10 12 10 10 10 10 9 10 8 8 8 7
4 6 5 4 4 3 3 2 1 1 1 2 4 7 6 12 13 13 16 8 5 6 2 5 7 7 8 8 8 9 9 10 9 10 10 9 9 9 9 8 8 8 7
6 4 4 4 3 3 3 3 2 2 2 2 2 2 4 11 10 12 11 2 2 4 4 6 6 6 7 8 8 8 9 9 10 10 9 9 9 8 9 8 8 9 8
5 6 6 4 4 4 4 3 3 2 2 2 3 3 4 4 4 5 3 3 4 4 5 6 7 6 7 7 8 8 8 9 9 9 9 9 9 8 8 8 7 7 6
5 5 8 5 4 5 4 4 2 2 2 3 3 2 11 1 3 3 4 5 5 5 6 6 7 7 6 6 7 7 8 9 8 9 9 9 9 8 7 7 7 6 4
6 6 5 5 5 5 4 3 3 3 2 3 3 3 11 2 3 4 4 5 6 6 6 6 7 6 6 6 7 8 8 9 9 8 8 8 9 8 7 7 6 5 3
6 6 5 4 4 4 4 3 3 3 3 3 3 4 3 4 4 5 5 6 6 6 6 6 6 6 6 6 6 7 8 9 9 8 9 9 8 7 7 7 5 4 3
6 6 6 5 4 4 3 3 3 3 3 3 4 4 4 5 5 6 6 6 6 7 7 6 6 8 7 7 7 7 8 8 8 9 12 8 7 8 7 6 4 3 2
6 6 5 4 4 4 3 3 3 3 3 3 4 3 4 5 5 6 7 6 7 7 8 7 6 8 9 10 11 12 12 14 11 12 9 8 7 8 6 5 4 2 1
5 4 4 4 3 3 3 3 3 3 3 3 4 4 5 5 6 7 8 8 7 7 8 7 9 11 12 10 12 13 13 14 13 15 9 4 4 5 4 4 4 2 2
Wind_Direction
86 87 79 68 62 61 58 48 42 40 32 36 33 32 32 32 28 30 26 19 18 12 10 8 4 355 353 348 340 330 317 306 289 305 315 320 317 317 314 309 302 301 299
92 81 73 66 57 60 58 47 40 45 39 36 36 40 35 32 27 27 22 18 15 9 5 2 359 358 357 351 345 334 324 317 304 305 315 317 315 316 312 308 306 298 301
85 76 70 65 65 62 55 50 43 41 43 40 38 36 29 27 22 21 20 13 5 359 355 350 346 346 352 344 340 332 325 320 310 299 305 308 307 310 310 306 306 300 293
90 87 82 65 56 55 51 51 47 42 45 38 36 32 23 20 20 18 18 6 1 356 354 350 351 346 339 340 337 332 322 313 304 297 301 306 307 312 307 310 308 306 305
102 90 77 77 69 66 54 48 44 40 34 31 34 31 25 32 20 15 13 1 348 347 347 351 349 338 346 340 335 329 324 317 311 306 300 300 303 311 311 314 303 307 307
98 98 94 79 69 60 51 41 43 37 27 28 27 19 24 18 12 8 8 351 344 349 350 348 340 339 340 336 330 330 329 323 314 311 306 302 302 303 303 305 298 299 304
116 99 85 83 81 60 50 45 38 29 17 20 19 22 15 355 5 1 7 355 344 344 346 346 348 343 338 331 330 332 326 317 313 308 302 300 298 297 295 295 295 288 277
117 110 110 123 103 72 62 48 31 9 11 9 10 10 360 358 357 1 9 354 342 343 342 350 343 342 342 334 335 329 320 319 312 308 301 297 296 288 297 304 300 293 273
153 158 153 133 106 76 57 31 23 348 2 358 358 353 359 357 0 1 4 352 345 342 348 346 345 339 331 341 335 322 320 317 311 312 311 311 309 306 301 299 290 274 277
177 152 129 107 100 95 45 7 345 342 358 342 339 357 360 356 350 353 360 349 343 343 343 335 336 335 336 339 330 327 320 315 325 325 317 314 311 301 305 307 301 293 296
139 124 110 110 119 103 80 152 1 358 358 350 343 354 339 332 334 350 358 355 345 344 326 335 332 335 338 333 332 328 312 325 327 315 316 317 318 322 326 319 311 303 300
133 132 135 123 179 140 142 170 131 45 19 351 341 331 302 300 345 351 357 351 347 330 339 331 340 336 335 334 336 326 328 335 313 318 317 321 327 330 330 330 329 324 321
146 147 155 182 177 177 173 107 55 23 343 321 323 325 339 350 339 339 334 344 340 341 337 348 338 339 336 334 331 330 336 321 321 320 324 322 323 318 315 323 321 315 307
155 175 176 180 184 176 90 177 194 221 233 262 302 339 338 341 333 316 334 332 331 351 359 355 344 338 332 324 320 321 317 322 323 326 325 320 319 325 326 335 326 334 321
183 176 184 183 193 203 237 221 224 235 221 233 256 232 348 343 329 339 336 331 341 340 13 355 336 330 325 323 321 317 319 330 337 334 328 327 326 327 329 334 326 328 322
175 186 189 185 186 201 222 278 268 254 298 314 347 353 317 330 333 333 332 345 349 343 20 342 328 322 321 320 318 323 331 337 337 330 326 325 323 325 325 326 323 317 317
192 180 176 183 187 185 201 201 251 328 352 25 0 350 337 340 332 331 349 354 350 10 349 319 318 317 315 312 316 324 327 331 327 323 321 322 321 321 325 321 322 323 321
179 184 182 185 182 181 196 204 216 239 262 301 334 327 345 338 337 350 349 8 351 358 313 308 303 305 308 311 319 322 322 322 324 320 317 318 320 320 320 321 322 318 318
183 185 182 176 175 181 187 199 213 243 277 293 321 318 343 333 329 347 6 40 307 301 299 299 292 297 302 306 310 312 313 315 316 313 315 318 319 319 315 313 315 314 317
184 179 170 169 178 190 191 200 212 233 270 294 301 308 318 318 353 340 336 301 306 302 299 293 296 290 291 300 305 309 308 312 311 311 313 316 315 315 311 313 316 319 317
169 165 177 181 182 190 187 202 206 216 252 273 286 283 296 54 303 281 287 295 292 284 283 283 287 283 283 292 299 304 302 303 301 303 308 312 314 313 312 310 313 314 316
167 173 175 181 181 187 194 186 197 221 242 270 283 287 318 319 287 274 277 278 276 263 265 267 273 273 280 287 294 295 296 297 299 301 304 305 310 309 309 311 314 319 323
159 164 174 178 185 173 176 183 197 215 249 261 275 289 290 283 279 278 280 281 279 277 272 263 266 278 280 271 274 278 285 289 293 297 296 299 305 306 309 312 316 313 318
166 173 178 178 170 177 176 186 206 221 248 264 269 268 270 277 279 281 279 278 276 276 270 265 260 262 277 278 277 275 272 276 279 280 284 285 295 305 307 306 309 311 309
173 173 173 164 167 175 171 192 218 239 252 255 267 266 272 275 279 281 279 274 274 275 278 272 268 269 269 270 274 277 276 282 275 272 272 264 278 293 295 296 297 295 285
157 145 143 148 164 172 184 196 223 245 254 263 264 266 269 281 282 282 282 280 278 276 280 282 277 267 273 276 274 275 279 286 281 274 273 226 269 283 286 284 277 265 226